Weather History for Milan, Italy

Change the Weather History Date:

Monday, October 15, 2012

  Actual Average Record
Temperature  
Mean Temperature 52 °F -  
Max Temperature 57 °F 58 °F 73 °F (2001)
Min Temperature 46 °F 38 °F 37 °F (2011)
Degree Days  
Heating Degree Days 14    
Growing Degree Days 2 (Base 50)    
Moisture  
Dew Point 48 °F    
Average Humidity 84    
Maximum Humidity 100    
Minimum Humidity 54    
Precipitation  
Precipitation 0.00 in 0.14 in - ()
Sea Level Pressure  
Sea Level Pressure 29.61 in    
Wind  
Wind Speed 6 mph ()    
Max Wind Speed 14 mph    
Max Gust Speed -    
Visibility 5.3 miles    
Events Rain    
Averages and records for this station are not official NWS values.
T = Trace of Precipitation, MM = Missing Value Source: Averaged Metar Reports

Daily Weather History Graph

Daily Weather History Graph

Search for Another Location

Airport:

Trip Planner

Search our weather history database for the weather conditions in past years. The results will help you decide how hot, cold, wet, or windy it might be!

Date:

Astronomy

Oct. 15, 2012 Rise Set
Actual Time 7:41 AM CEST 6:39 PM CEST
Civil Twilight 7:11 AM CEST 7:08 PM CEST
Nautical Twilight 6:37 AM CEST 7:43 PM CEST
Astronomical Twilight 6:03 AM CEST 8:17 PM CEST
Moon 7:34 AM CEST (10/15) 6:23 PM CEST (10/15)
Length of Visible Light 11h 57m
Length of Day
10h 57m
Waning Crescent, 0% of the Moon is Illuminated
Oct 15
Waning Crescent
Oct 15
New
Oct 22
First Quarter
Oct 29
Full
Nov 7
Last Quarter

Hourly Weather History & Observations

Time (CEST) Temp. Windchill Dew Point Humidity Pressure Visibility Wind Dir Wind Speed Gust Speed Precip Events Conditions
12:20 AM 55.4 °F - 53.6 °F 94% 29.62 in 5.0 mi ESE 4.6 mph - N/A   Overcast
12:50 AM 55.4 °F - 55.4 °F 100% 29.62 in 5.0 mi East 4.6 mph - N/A   Overcast
1:20 AM 57.2 °F - 55.4 °F 94% 29.62 in 5.0 mi ESE 5.8 mph - N/A   Overcast
1:50 AM 57.2 °F - 55.4 °F 94% 29.59 in 5.0 mi ESE 5.8 mph - N/A   Overcast
2:20 AM 55.4 °F - 55.4 °F 100% 29.59 in 5.0 mi ESE 4.6 mph - N/A   Overcast
2:50 AM 55.4 °F - 55.4 °F 100% 29.59 in 2.2 mi East 4.6 mph - N/A Rain Rain
3:20 AM 55.4 °F - 55.4 °F 100% 29.56 in 3.1 mi ESE 5.8 mph - N/A Rain Light Rain
3:50 AM 55.4 °F - 55.4 °F 100% 29.56 in 5.0 mi ESE 5.8 mph - N/A   Overcast
4:20 AM 55.4 °F - 55.4 °F 100% 29.56 in 5.0 mi ESE 5.8 mph - N/A   Overcast
4:50 AM 55.4 °F - 55.4 °F 100% 29.56 in 5.0 mi ESE 5.8 mph - N/A   Overcast
5:20 AM 55.4 °F - 55.4 °F 100% 29.56 in 3.7 mi ESE 5.8 mph - N/A   Overcast
5:50 AM 55.4 °F - 55.4 °F 100% 29.56 in 3.7 mi East 5.8 mph - N/A Rain Rain
6:20 AM 55.4 °F - 53.6 °F 94% 29.56 in 2.5 mi East 4.6 mph - N/A Rain Rain
6:50 AM 55.4 °F - 53.6 °F 94% 29.53 in 5.0 mi ESE 4.6 mph - N/A Rain Light Rain
7:20 AM 55.4 °F - 53.6 °F 94% 29.53 in 5.0 mi ESE 4.6 mph - N/A Rain Rain
7:50 AM 55.4 °F - 53.6 °F 94% 29.53 in 5.0 mi ESE 4.6 mph - N/A Rain Rain
8:20 AM 55.4 °F - 53.6 °F 94% 29.53 in 5.0 mi Variable 4.6 mph - N/A Rain Rain
8:50 AM 55.4 °F - 53.6 °F 94% 29.56 in 5.0 mi ESE 4.6 mph - N/A Rain Light Rain
9:20 AM 55.4 °F - 53.6 °F 94% 29.53 in 5.0 mi East 5.8 mph - N/A Rain Light Rain
9:50 AM 55.4 °F - 53.6 °F 94% 29.56 in 5.0 mi East 4.6 mph - N/A   Overcast
10:20 AM 55.4 °F - 55.4 °F 100% 29.56 in 6.2 mi East 4.6 mph - N/A   Overcast
10:50 AM 57.2 °F - 55.4 °F 94% 29.56 in 6.2 mi East 4.6 mph - N/A   Overcast
11:20 AM 57.2 °F - 55.4 °F 94% 29.56 in 6.2 mi ESE 4.6 mph - N/A Rain Rain
11:50 AM 57.2 °F - 55.4 °F 94% 29.56 in 6.2 mi ESE 4.6 mph - N/A Rain Rain
12:20 PM 53.6 °F - 51.8 °F 94% 29.56 in 5.0 mi Variable 2.3 mph - N/A Rain Rain
12:50 PM 51.8 °F - 50.0 °F 94% 29.59 in 5.0 mi NNW 6.9 mph - N/A Rain Rain
1:20 PM 50.0 °F - 48.2 °F 94% 29.59 in 3.7 mi North 9.2 mph - N/A Rain Rain
1:50 PM 50.0 °F - 44.6 °F 82% 29.59 in 3.7 mi NNW 12.7 mph - N/A Rain Rain
2:20 PM 48.2 °F - 44.6 °F 87% 29.59 in 3.7 mi North 11.5 mph - N/A Rain Light Rain
2:50 PM 48.2 °F - 42.8 °F 82% 29.59 in 6.2 mi North 12.7 mph - N/A Rain Light Rain
3:20 PM 48.2 °F - 42.8 °F 82% 29.62 in 6.2 mi NNW 13.8 mph - N/A Rain Rain
3:50 PM 48.2 °F - 42.8 °F 82% 29.62 in 6.2 mi North 12.7 mph - N/A Rain Light Rain
4:20 PM 48.2 °F - 41.0 °F 76% 29.62 in 6.2 mi North 13.8 mph - N/A Rain Light Rain
4:50 PM 50.0 °F - 39.2 °F 66% 29.62 in 6.2 mi North 13.8 mph - N/A Rain Light Rain
5:20 PM 50.0 °F - 39.2 °F 66% 29.62 in 6.2 mi North 12.7 mph - N/A   Mostly Cloudy
5:50 PM 50.0 °F - 37.4 °F 62% 29.62 in 6.2 mi North 10.4 mph - N/A   Mostly Cloudy
6:20 PM 51.8 °F - 35.6 °F 54% 29.65 in 6.2 mi North 8.1 mph - N/A   Mostly Cloudy
6:50 PM 51.8 °F - 35.6 °F 54% 29.65 in 6.2 mi North 10.4 mph - N/A   Mostly Cloudy
7:20 PM 51.8 °F - 35.6 °F 54% 29.65 in 6.2 mi North 9.2 mph - N/A   Mostly Cloudy
7:50 PM 51.8 °F - 35.6 °F 54% 29.65 in 6.2 mi North 5.8 mph - N/A   Mostly Cloudy
8:20 PM 51.8 °F - 35.6 °F 54% 29.68 in 6.2 mi North 4.6 mph - N/A   Mostly Cloudy
8:50 PM 50.0 °F - 35.6 °F 58% 29.68 in 6.2 mi North 3.5 mph - N/A   Mostly Cloudy
9:20 PM 46.4 °F 45.2 °F 35.6 °F 66% 29.71 in 6.2 mi NNW 3.5 mph - N/A   Scattered Clouds
9:50 PM 50.0 °F - 35.6 °F 58% 29.71 in 6.2 mi North 2.3 mph - N/A   Scattered Clouds
10:20 PM 48.2 °F - 39.2 °F 71% 29.71 in 6.2 mi NNW 2.3 mph - N/A   Scattered Clouds
10:50 PM 50.0 °F - 39.2 °F 66% 29.74 in 6.2 mi WNW 4.6 mph - N/A   Scattered Clouds
11:20 PM 50.0 °F - 41.0 °F 71% 29.74 in 6.2 mi West 3.5 mph - N/A   Scattered Clouds
11:50 PM 50.0 °F - 41.0 °F 71% 29.74 in 6.2 mi Variable 1.2 mph - N/A   Scattered Clouds